ARIANE 5 R/B (44802 NORAD) Tracking and Keplerian Element Data

This shows tracking and keplerian element data for the satellite.

Feedback or suggestion? Click here.




ElementValue
Catalog44802
NameARIANE 5 R/B
Epoch Orbit63
Epoch Day358.79849678
Epoch Year2019
RAAN200.0471
Inclination5.1413
Eccentricity0.726745
Argument of Perigee203.3615
Mean Anonmoly90.6151
Mean Motion2.30379075
Decay Rate1.457E-05
L11 44802U 19080C 19358.79849678 .00001457 00000-0 30620-3 0 9991
L22 44802 5.1413 200.0471 7267450 203.3615 90.6151 2.30379075 636

Live tracking and technical data element details for ARIANE 5 R/B (NORAD 44802). ARIANE 5 R/B can be tracked NOW for your location showing map with azimuth and elevation plus other details from your city location.

Track the satellite on the map from your city or location and see movement details for azimuth, elevation, latitude, longitude, range, height, and movement on the map or in text.







IsCatalogInMostPopularTable: catalog: 44802, numindb: 15
Update: records affected: 1



GetName: 44802 ARIANE 5 R/B

Hit Count: updated at: Fri, 24 Jan 2020 10:26:09 GMT